Time,TemperatureF,DewpointF,PressureIn,WindDirection,WindDirectionDegrees,WindSpeedMPH,WindSpeedGustMPH,Humidity,HourlyPrecipIn,Conditions,Clouds,dailyrainin,SoftwareType,DateUTC
2013-07-28 00:02:00,56.1,48.3,30.08,SE,126,1.0,2.0,75,0.00,OVC,FEW,0.00,WeatherDisplay:10.37,2013-07-28 07:02:00,
2013-07-28 00:17:00,56.1,48.3,30.08,South,191,0.0,1.0,75,0.00,OVC,FEW,0.00,WeatherDisplay:10.37,2013-07-28 07:17:00,
2013-07-28 00:32:00,56.1,48.3,30.07,West,265,2.0,2.0,75,0.00,OVC,FEW,0.00,WeatherDisplay:10.37,2013-07-28 07:32:00,
2013-07-28 00:47:00,56.1,48.3,30.08,WSW,241,1.0,2.0,75,0.00,OVC,FEW,0.00,WeatherDisplay:10.37,2013-07-28 07:47:00,
2013-07-28 01:02:00,56.1,48.3,30.08,WSW,248,1.0,1.0,75,0.00,OVC,FEW,0.00,WeatherDisplay:10.37,2013-07-28 08:02:00,
2013-07-28 01:17:00,56.3,48.8,30.07,SSW,193,0.0,3.0,76,0.00,OVC,FEW,0.00,WeatherDisplay:10.37,2013-07-28 08:17:00,
2013-07-28 01:32:00,56.3,48.8,30.07,SW,225,0.0,2.0,76,0.00,OVC,FEW,0.00,WeatherDisplay:10.37,2013-07-28 08:32:00,
2013-07-28 01:47:00,56.3,48.8,30.07,SSE,158,0.0,0.0,76,0.00,OVC,FEW,0.00,WeatherDisplay:10.37,2013-07-28 08:47:00,
2013-07-28 02:02:00,56.3,49.2,30.06,SW,226,0.0,2.0,77,0.00,OVC,FEW,0.00,WeatherDisplay:10.37,2013-07-28 09:02:00,
2013-07-28 02:17:00,56.5,49.4,30.06,South,180,1.0,2.0,77,0.00,OVC,FEW,0.00,WeatherDisplay:10.37,2013-07-28 09:17:00,
2013-07-28 02:32:00,56.5,49.4,30.06,WSW,248,0.0,1.0,77,0.00,OVC,FEW,0.00,WeatherDisplay:10.37,2013-07-28 09:32:00,
2013-07-28 02:47:00,56.5,49.4,30.06,SW,227,3.0,3.0,77,0.00,OVC,FEW,0.00,WeatherDisplay:10.37,2013-07-28 09:47:00,
2013-07-28 03:02:00,56.5,49.4,30.06,SSE,157,0.0,3.0,77,0.00,OVC,FEW,0.00,WeatherDisplay:10.37,2013-07-28 10:02:00,
2013-07-28 03:17:00,56.5,49.7,30.06,WSW,243,3.0,3.0,78,0.00,OVC,FEW,0.00,WeatherDisplay:10.37,2013-07-28 10:17:00,
2013-07-28 03:32:00,56.5,49.7,30.05,SSW,202,0.0,3.0,78,0.00,OVC,FEW,0.00,WeatherDisplay:10.37,2013-07-28 10:32:00,
2013-07-28 03:47:00,56.7,50.0,30.06,SW,221,1.0,3.0,78,0.00,OVC,FEW,0.00,WeatherDisplay:10.37,2013-07-28 10:47:00,
2013-07-28 04:02:00,56.7,49.9,30.06,West,260,3.0,3.0,78,0.00,OVC,FEW,0.00,WeatherDisplay:10.37,2013-07-28 11:02:00,
2013-07-28 04:17:00,56.8,50.1,30.05,WSW,238,1.0,3.0,78,0.00,OVC,FEW,0.00,WeatherDisplay:10.37,2013-07-28 11:17:00,
2013-07-28 04:32:00,56.8,50.1,30.06,SW,225,3.0,3.0,78,0.00,OVC,FEW,0.00,WeatherDisplay:10.37,2013-07-28 11:32:00,
2013-07-28 04:47:00,56.8,50.1,30.05,SW,236,1.0,3.0,78,0.00,OVC,FEW,0.00,WeatherDisplay:10.37,2013-07-28 11:47:00,
2013-07-28 05:02:00,56.8,50.4,30.05,SSE,149,1.0,2.0,79,0.00,OVC,FEW,0.00,WeatherDisplay:10.37,2013-07-28 12:02:00,
2013-07-28 05:17:00,56.7,50.2,30.05,SSE,161,1.0,3.0,79,0.00,OVC,FEW,0.00,WeatherDisplay:10.37,2013-07-28 12:17:00,
2013-07-28 05:32:00,56.7,50.2,30.05,SW,220,2.0,3.0,79,0.00,OVC,FEW,0.00,WeatherDisplay:10.37,2013-07-28 12:32:00,
2013-07-28 05:47:00,56.6,50.1,30.05,South,177,2.0,2.0,79,0.00,OVC,FEW,0.00,WeatherDisplay:10.37,2013-07-28 12:47:00,
2013-07-28 06:17:00,56.6,50.5,30.05,SSW,192,0.0,3.0,80,0.00,OVC,FEW,0.00,WeatherDisplay:10.37,2013-07-28 13:17:00,
2013-07-28 06:32:00,56.7,50.6,30.06,SW,225,0.0,0.0,80,0.00,OVC,FEW,0.00,WeatherDisplay:10.37,2013-07-28 13:32:00,
2013-07-28 06:47:00,56.8,50.7,30.06,SW,232,1.0,1.0,80,0.00,OVC,FEW,0.00,WeatherDisplay:10.37,2013-07-28 13:47:00,
2013-07-28 07:02:00,56.8,50.7,30.06,SSW,194,0.0,1.0,80,0.00,OVC,FEW,0.00,WeatherDisplay:10.37,2013-07-28 14:02:00,
2013-07-28 07:17:00,56.9,50.8,30.07,South,175,1.0,1.0,80,0.00,OVC,FEW,0.00,WeatherDisplay:10.37,2013-07-28 14:17:00,
2013-07-28 07:32:00,57.0,50.9,30.07,SW,233,1.0,1.0,80,0.00,OVC,FEW,0.00,WeatherDisplay:10.37,2013-07-28 14:32:00,
2013-07-28 07:47:00,57.0,50.9,30.07,South,180,2.0,3.0,80,0.00,OVC,FEW,0.00,WeatherDisplay:10.37,2013-07-28 14:47:00,
2013-07-28 08:02:00,57.2,51.4,30.07,SW,221,0.0,3.0,81,0.00,OVC,FEW,0.00,WeatherDisplay:10.37,2013-07-28 15:02:00,
2013-07-28 08:17:00,57.4,51.6,30.06,SSW,212,0.0,1.0,81,0.00,OVC,FEW,0.00,WeatherDisplay:10.37,2013-07-28 15:17:00,
2013-07-28 08:32:00,57.6,51.8,30.06,South,186,1.0,1.0,81,0.00,OVC,FEW,0.00,WeatherDisplay:10.37,2013-07-28 15:32:00,
2013-07-28 08:47:00,57.9,52.1,30.06,SW,217,0.0,3.0,81,0.00,OVC,FEW,0.00,WeatherDisplay:10.37,2013-07-28 15:47:00,
2013-07-28 09:02:00,58.1,52.0,30.06,WNW,287,1.0,2.0,80,0.00,OVC,FEW,0.00,WeatherDisplay:10.37,2013-07-28 16:02:00,
2013-07-28 09:17:00,58.4,52.2,30.06,SSE,156,0.0,2.0,80,0.00,OVC,FEW,0.00,WeatherDisplay:10.37,2013-07-28 16:17:00,
2013-07-28 09:32:00,58.9,52.8,30.06,SW,226,1.0,2.0,80,0.00,OVC,FEW,0.00,WeatherDisplay:10.37,2013-07-28 16:32:00,
2013-07-28 09:47:00,59.5,53.4,30.06,SW,225,1.0,1.0,80,0.00,OVC,FEW,0.00,WeatherDisplay:10.37,2013-07-28 16:47:00,
2013-07-28 10:02:00,59.7,53.2,30.06,SSW,200,1.0,2.0,79,0.00,OVC,FEW,0.00,WeatherDisplay:10.37,2013-07-28 17:02:00,
2013-07-28 10:17:00,60.4,53.5,30.06,SW,225,0.0,3.0,78,0.00,OVC,FEW,0.00,WeatherDisplay:10.37,2013-07-28 17:17:00,
2013-07-28 10:32:00,60.6,53.7,30.06,WSW,245,0.0,1.0,78,0.00,OVC,FEW,0.00,WeatherDisplay:10.37,2013-07-28 17:32:00,
2013-07-28 10:47:00,60.6,53.7,30.06,SSW,213,2.0,3.0,78,0.00,OVC,FEW,0.00,WeatherDisplay:10.37,2013-07-28 17:47:00,
2013-07-28 11:02:00,61.4,54.5,30.06,West,261,0.0,3.0,78,0.00,OVC,FEW,0.00,WeatherDisplay:10.37,2013-07-28 18:02:00,
2013-07-28 11:17:00,62.1,54.8,30.06,WNW,282,5.0,6.0,77,0.00,OVC,FEW,0.00,WeatherDisplay:10.37,2013-07-28 18:17:00,
2013-07-28 11:32:00,62.2,54.6,30.06,WSW,257,1.0,2.0,76,0.00,OVC,FEW,0.00,WeatherDisplay:10.37,2013-07-28 18:32:00,
2013-07-28 11:47:00,62.9,54.9,30.06,SW,217,1.0,3.0,75,0.00,OVC,FEW,0.00,WeatherDisplay:10.37,2013-07-28 18:47:00,
2013-07-28 12:02:00,63.4,55.0,30.06,South,181,1.0,4.0,74,0.00,OVC,FEW,0.00,WeatherDisplay:10.37,2013-07-28 19:02:00,
2013-07-28 12:17:00,64.2,55.4,30.06,SSW,211,1.0,4.0,73,0.00,OVC,FEW,0.00,WeatherDisplay:10.37,2013-07-28 19:17:00,
2013-07-28 12:32:00,65.1,55.8,30.06,SW,219,2.0,7.0,72,0.00,OVC,FEW,0.00,WeatherDisplay:10.37,2013-07-28 19:32:00,
2013-07-28 12:47:00,65.3,55.7,30.06,SW,225,3.0,7.0,71,0.00,OVC,FEW,0.00,WeatherDisplay:10.37,2013-07-28 19:47:00,
2013-07-28 13:02:00,65.3,55.3,30.06,SW,223,5.0,5.0,70,0.00,OVC,FEW,0.00,WeatherDisplay:10.37,2013-07-28 20:02:00,
2013-07-28 13:17:00,65.8,55.4,30.06,WSW,243,1.0,5.0,69,0.00,OVC,FEW,0.00,WeatherDisplay:10.37,2013-07-28 20:17:00,
2013-07-28 13:32:00,65.9,55.0,30.07,WNW,284,6.0,9.0,68,0.00,OVC,FEW,0.00,WeatherDisplay:10.37,2013-07-28 20:32:00,
2013-07-28 13:47:00,66.0,54.7,30.06,West,281,8.0,10.0,67,0.00,OVC,FEW,0.00,WeatherDisplay:10.37,2013-07-28 20:47:00,
2013-07-28 14:02:00,65.4,54.6,30.06,SW,215,1.0,3.0,68,0.00,OVC,FEW,0.00,WeatherDisplay:10.37,2013-07-28 21:02:00,
2013-07-28 14:32:00,65.3,54.4,30.06,West,267,2.0,5.0,68,0.00,OVC,FEW,0.00,WeatherDisplay:10.37,2013-07-28 21:32:00,
2013-07-28 14:47:00,65.8,54.6,30.06,West,269,5.0,6.0,67,0.00,OVC,FEW,0.00,WeatherDisplay:10.37,2013-07-28 21:47:00,
2013-07-28 15:02:00,65.1,53.9,30.06,South,171,3.0,5.0,67,0.00,OVC,FEW,0.00,WeatherDisplay:10.37,2013-07-28 22:02:00,
2013-07-28 15:17:00,64.9,53.7,30.06,WSW,252,1.0,5.0,67,0.00,OVC,FEW,0.00,WeatherDisplay:10.37,2013-07-28 22:17:00,
2013-07-28 15:32:00,66.2,54.9,30.05,SW,230,1.0,2.0,67,0.00,OVC,FEW,0.00,WeatherDisplay:10.37,2013-07-28 22:32:00,
2013-07-28 15:47:00,65.5,53.9,30.05,WSW,252,3.0,3.0,66,0.00,OVC,FEW,0.00,WeatherDisplay:10.37,2013-07-28 22:47:00,
2013-07-28 16:02:00,64.7,53.9,30.05,West,280,0.0,6.0,68,0.00,OVC,FEW,0.00,WeatherDisplay:10.37,2013-07-28 23:02:00,
2013-07-28 16:17:00,65.3,54.1,30.04,WSW,254,7.0,9.0,67,0.00,OVC,FEW,0.00,WeatherDisplay:10.37,2013-07-28 23:17:00,
2013-07-28 16:32:00,66.0,54.7,30.04,SW,230,2.0,5.0,67,0.00,OVC,FEW,0.00,WeatherDisplay:10.37,2013-07-28 23:32:00,
2013-07-28 16:47:00,66.7,55.0,30.04,WSW,257,2.0,4.0,66,0.00,OVC,FEW,0.00,WeatherDisplay:10.37,2013-07-28 23:47:00,
2013-07-28 17:17:00,66.0,53.9,30.03,WNW,292,1.0,5.0,65,0.00,OVC,FEW,0.00,WeatherDisplay:10.37,2013-07-29 00:17:00,
2013-07-28 17:32:00,65.8,54.2,30.03,WNW,291,2.0,4.0,66,0.00,OVC,FEW,0.00,WeatherDisplay:10.37,2013-07-29 00:32:00,
2013-07-28 17:47:00,65.5,53.8,30.03,WSW,247,1.0,3.0,66,0.00,OVC,FEW,0.00,WeatherDisplay:10.37,2013-07-29 00:47:00,
2013-07-28 18:02:00,64.8,53.1,30.02,West,273,2.0,3.0,66,0.00,OVC,FEW,0.00,WeatherDisplay:10.37,2013-07-29 01:02:00,
2013-07-28 18:17:00,64.2,53.0,30.02,West,262,2.0,4.0,67,0.00,OVC,FEW,0.00,WeatherDisplay:10.37,2013-07-29 01:17:00,
2013-07-28 18:32:00,63.7,52.9,30.02,WSW,255,2.0,4.0,68,0.00,OVC,FEW,0.00,WeatherDisplay:10.37,2013-07-29 01:32:00,
2013-07-28 18:47:00,63.1,52.4,30.02,WSW,242,3.0,5.0,68,0.00,OVC,FEW,0.00,WeatherDisplay:10.37,2013-07-29 01:47:00,
2013-07-28 19:02:00,62.4,52.5,30.03,WSW,247,3.0,6.0,70,0.00,OVC,FEW,0.00,WeatherDisplay:10.37,2013-07-29 02:02:00,
2013-07-28 19:17:00,61.5,52.0,30.03,South,190,1.0,6.0,71,0.00,OVC,FEW,0.00,WeatherDisplay:10.37,2013-07-29 02:17:00,
2013-07-28 19:32:00,61.3,51.9,30.02,West,260,0.0,2.0,71,0.00,OVC,FEW,0.00,WeatherDisplay:10.37,2013-07-29 02:32:00,
2013-07-28 19:47:00,61.0,51.5,30.02,SSW,195,1.0,1.0,71,0.00,OVC,FEW,0.00,WeatherDisplay:10.37,2013-07-29 02:47:00,
2013-07-28 20:02:00,60.6,51.5,30.02,SE,133,0.0,1.0,72,0.00,CLR,FEW,0.00,WeatherDisplay:10.37,2013-07-29 03:02:00,
2013-07-28 20:17:00,60.4,51.4,30.01,South,180,0.0,0.0,72,0.00,CLR,FEW,0.00,WeatherDisplay:10.37,2013-07-29 03:17:00,
2013-07-28 20:32:00,59.9,51.2,30.01,SW,221,0.0,0.0,73,0.00,CLR,FEW,0.00,WeatherDisplay:10.37,2013-07-29 03:32:00,
2013-07-28 20:47:00,59.5,50.9,30.01,SSW,194,1.0,1.0,73,0.00,CLR,FEW,0.00,WeatherDisplay:10.37,2013-07-29 03:47:00,
2013-07-28 21:02:00,59.2,50.9,30.01,WSW,238,0.0,0.0,74,0.00,OVC,FEW,0.00,WeatherDisplay:10.37,2013-07-29 04:02:00,
2013-07-28 21:17:00,58.8,50.5,30.01,SW,219,1.0,2.0,74,0.00,OVC,FEW,0.00,WeatherDisplay:10.37,2013-07-29 04:17:00,
2013-07-28 21:32:00,58.8,50.9,30.01,SSE,158,1.0,2.0,75,0.00,OVC,FEW,0.00,WeatherDisplay:10.37,2013-07-29 04:32:00,
2013-07-28 21:47:00,58.8,50.9,30.01,SSE,158,1.0,1.0,75,0.00,OVC,FEW,0.00,WeatherDisplay:10.37,2013-07-29 04:47:00,
2013-07-28 22:02:00,58.8,50.9,30.02,SSE,167,1.0,2.0,75,0.00,OVC,FEW,0.00,WeatherDisplay:10.37,2013-07-29 05:02:00,
2013-07-28 22:17:00,58.6,50.7,30.01,WSW,239,0.0,3.0,75,0.00,OVC,FEW,0.00,WeatherDisplay:10.37,2013-07-29 05:17:00,
2013-07-28 22:32:00,58.6,51.1,30.01,SE,143,0.0,0.0,76,0.00,OVC,FEW,0.00,WeatherDisplay:10.37,2013-07-29 05:32:00,
2013-07-28 22:47:00,58.3,50.7,30.01,SE,143,0.0,0.0,76,0.00,OVC,FEW,0.00,WeatherDisplay:10.37,2013-07-29 05:47:00,
2013-07-28 23:02:00,58.3,50.7,30.01,SSE,153,0.0,0.0,76,0.00,OVC,FEW,0.00,WeatherDisplay:10.37,2013-07-29 06:02:00,
2013-07-28 23:17:00,58.3,51.1,30.01,SW,228,0.0,6.0,77,0.00,OVC,FEW,0.00,WeatherDisplay:10.37,2013-07-29 06:17:00,
2013-07-28 23:32:00,58.3,51.1,30.01,SE,135,1.0,2.0,77,0.00,OVC,FEW,0.00,WeatherDisplay:10.37,2013-07-29 06:32:00,
2013-07-28 23:47:00,58.1,50.9,30.01,South,173,1.0,2.0,77,0.00,OVC,FEW,0.00,WeatherDisplay:10.37,2013-07-29 06:47:00,